Shaw Air Force Base, SC

6:13 PM EDT on August 24, 2016 (GMT -0400)
Shaw Air Force Base

Weather History for KSSC - December, 2012

Change the Weather History Date:

Friday, December 14, 2012

  Actual Average Record
Temperature  
Mean Temperature 46 °F -  
Max Temperature 58 °F 55 °F 77 °F (2015)
Min Temperature 34 °F 34 °F 17 °F (2010)
Degree Days  
Heating Degree Days 19    
Moisture  
Dew Point 30 °F    
Average Humidity 58    
Maximum Humidity 79    
Minimum Humidity 29    
Precipitation  
Precipitation 0.00 in - - ()
Sea Level Pressure  
Sea Level Pressure 30.29 in    
Wind  
Wind Speed 4 mph (NE)    
Max Wind Speed 7 mph    
Max Gust Speed -    
Visibility 10 miles    
Events      
Averages and records for this station are not official NWS values.
T = Trace of Precipitation, MM = Missing Value Source: NWS Daily Summary

Daily Weather History Graph

Daily Weather History Graph

Search for Another Location

Airport or City:

Trip Planner

Search our weather history database for the weather conditions in past years. The results will help you decide how hot, cold, wet, or windy it might be!

Date:

Astronomy

Dec. 14, 2012 Rise Set
Actual Time 7:19 AM EST 5:14 PM EST
Civil Twilight 6:51 AM EST 5:41 PM EST
Nautical Twilight 6:20 AM EST 6:13 PM EST
Astronomical Twilight 5:50 AM EST 6:43 PM EST
Moon 8:25 AM EST (12/14) 7:02 PM EST (12/14)
Length of Visible Light 10h 50m
Length of Day
9h 54m
Waxing Crescent, 3% of the Moon is Illuminated
Dec 14
Waxing Crescent
Dec 20
First Quarter
Dec 28
Full
Jan 4
Last Quarter
Jan 11
New

Hourly Weather History & Observations

Time (EST) Temp. Windchill Dew Point Humidity Pressure Visibility Wind Dir Wind Speed Gust Speed Precip Events Conditions
5:55 AM 35.2 °F 30.3 °F 29.1 °F 78% 30.33 in 10.0 mi NNE 5.8 mph - N/A   Clear
6:55 AM 36.3 °F 32.5 °F 29.5 °F 76% 30.36 in 10.0 mi NW 4.6 mph - N/A   Clear
7:55 AM 34.5 °F 31.6 °F 28.6 °F 79% 30.36 in 10.0 mi NNE 3.5 mph - N/A   Clear
8:55 AM 41.0 °F 36.4 °F 32.0 °F 70% 30.38 in 10.0 mi NNE 6.9 mph - N/A   Clear
9:55 AM 45.3 °F 43.0 °F 32.2 °F 60% 30.38 in 10.0 mi NE 4.6 mph - N/A   Clear
10:55 AM 50.2 °F - 30.9 °F 48% 30.38 in 10.0 mi NE 4.6 mph - N/A   Clear
11:55 AM 55.0 °F - 31.6 °F 41% 30.35 in 10.0 mi Calm Calm - 0.00 in   Clear
12:55 PM 55.2 °F - 29.7 °F 38% 30.30 in 10.0 mi Variable 3.5 mph - N/A   Clear
1:55 PM 57.9 °F - 25.3 °F 29% 30.27 in 10.0 mi Variable 4.6 mph - N/A   Clear
2:55 PM 58.8 °F - 27.3 °F 30% 30.25 in 10.0 mi NNE 5.8 mph - N/A   Clear
3:55 PM 58.5 °F - 27.3 °F 30% 30.24 in 10.0 mi East 4.6 mph - N/A   Clear
4:55 PM 55.0 °F - 29.8 °F 38% 30.22 in 10.0 mi East 4.6 mph - N/A   Clear
5:55 PM 48.6 °F - 30.2 °F 49% 30.24 in 10.0 mi Calm Calm - N/A   Clear
6:55 PM 44.1 °F - 32.9 °F 65% 30.26 in 10.0 mi Calm Calm - N/A   Clear
7:55 PM 40.1 °F - 32.2 °F 73% 30.26 in 10.0 mi Calm Calm - N/A   Clear
8:55 PM 37.9 °F - 31.6 °F 78% 30.25 in 10.0 mi Calm Calm - N/A   Clear
9:55 PM 38.3 °F - 30.9 °F 75% 30.25 in 10.0 mi Calm Calm - N/A   Clear
10:55 PM 35.4 °F - 28.8 °F 77% 30.26 in 10.0 mi Calm Calm - N/A   Clear
11:55 PM 36.1 °F - 29.5 °F 77% 30.25 in 10.0 mi Calm Calm - N/A   Clear